115  
ASUS45 KSLC 180310  
RWRUT  
 
UTAH REGIONAL WEATHER ROUNDUP  
NATIONAL WEATHER SERVICE SALT LAKE CITY UT  
900 PM MDT TUE OCT 17 2017  
 
UTZ001>011-023>025-180400-  
 
NORTHERN UTAH  
 
CITY SKY/WX TMP DP RH WIND PRES REMARKS
 
BRIGHAM CITY CLOUDY 49 33 53 CALM 30.13R  
HILL AFB MOCLDY 56 32 40 N3 30.13S  
LOGAN MOCLDY 46 27 47 CALM 30.13R  
OGDEN MOCLDY 52 34 50 SW5 30.12S  
SALT LAKE CITY CLOUDY 54 33 45 CALM 30.11F  
TOOELE VALLEY MOCLDY 39 32 75 S9 30.13S WCI 33  
WENDOVER MOCLDY 51 23 33 SW5 30.12F  
WEST JORDAN CLOUDY 52 31 44 CALM 30.14S  
 

 
 
UTZ011>015-024>027-180400-  
 
CENTRAL/NORTHEAST UTAH  
 
CITY SKY/WX TMP DP RH WIND PRES REMARKS
 
PROVO AIRPORT NOT AVBL  
MOAB/CANYONLAN PTCLDY 50 12 21 CALM 30.15S  
DELTA MOCLDY 54 19 26 E5 30.12S  
PRICE CLEAR 47 6 18 N10 30.23R  
RICHFIELD CLEAR 50 18 27 CALM 30.19R  
ROOSEVELT CLOUDY 41 23 48 SW5 30.20S  
VERNAL CLOUDY 47 21 35 W5 30.17F  
 

 
 
UTZ013>016-019>022-027-180400-  
 
SOUTHERN UTAH  
 
CITY SKY/WX TMP DP RH WIND PRES REMARKS
 
BRYCE CANYON PTCLDY 36 13 38 SW7 30.33R WCI 30  
CEDAR CITY PTCLDY 54 22 28 CALM 30.19R  
MILFORD PTCLDY 62 18 18 S13 30.13S  
ST GEORGE MOCLDY 69 16 13 S3 30.05R  
HANKSVILLE PTCLDY 55 12 18 CALM 30.18S  
KANAB CLEAR 61 27 27 E1 30.20R  
BLANDING N/A 44 11 26 NW6 30.31S  
 

 
 
REGIONAL REPORTS COLORADO/ARIZONA  
 
CITY SKY/WX TMP DP RH WIND PRES REMARKS
 
CRAIG, CO CLOUDY 39 18 42 CALM 30.22R  
GRAND JUNCTION CLEAR 46 13 26 E3 30.18F  
RIFLE, CO CLOUDY 49 16 26 SE5 30.22R  
MONTROSE, CO CLOUDY 47 19 33 SE7 30.26S  
CORTEZ, CO CLOUDY 42 9 25 NE8 30.25S  
COLORADO CITY N/A 54 21 28 CALM 30.20S  
PAGE, AZ PTCLDY 62 17 17 S3 30.12S  
GRAND CANYON PTCLDY 49 20 31 CALM 30.28F  
KINGMAN, AZ CLEAR 68 27 21 SW7 30.08F  
FLAGSTAFF, AZ CLEAR 49 23 36 CALM 30.31S  
 

 
 
REGIONAL REPORTS NEVADA/IDAHO/WYOMING  
 
CITY SKY/WX TMP DP RH WIND PRES REMARKS
 
LAS VEGAS, NV MOCLDY 77 18 11 SW3 29.99S  
ELY, NY MOCLDY 49 -3 11 S9 30.22R  
ELKO, NV MOCLDY 48 14 25 CALM 30.18R  
POCATELLO, ID PTCLDY 60 21 22 S15 30.09S  
BURLEY, ID CLEAR 48 26 42 S6 30.09R  
FORT BRIDGER, N/A 55 3 12 SW10 30.25S  
EVANSTON, WY CLOUDY 52 7 16 W10 30.23S  
ROCK SPRINGS, CLOUDY 50 6 16 W10 30.20S  
KEMMERER, WY CLOUDY 50 1 13 CALM 30.24R  
 

 
 
 
CLICK HERE TO GO TO PREVIOUS BULLETINS.

The Nexlab UT Page Main Text Page